Location: Marcé
(47.5801°N, 0.3280°W)
Time: 02:42:46
(UTC+01:00)

Vanguard 1 - Pass Details

Date: 06 December 2021
Orbit: 652 x 3830 km, 34.2° (Epoch: 21 January)

Event Time Altitude Azimuth Distance (km) Brightness Sun altitude
Exits shadow 04:55:32 43° 228° (SW) 4,316 12.8 -35.9°
Maximum altitude 04:59:37 47° 203° (SSW) 3,970 12.8 -35.2°
Drops below altitude 10° 05:14:14 10° 136° (SE) 4,955 14.1 -32.8°
Sets 05:17:31 0° 130° (SE) 5,596 14.6 -32.2°
